This is the latest recevied weather packets stored in our database for station/object N9BLE. If no packets are shown the sender has not sent any weather packets the latest 10 day(s).
| Time | Temp. | Humidity | Pressure | Rain* | Wind** | Luminosity | Snow |
|---|---|---|---|---|---|---|---|
| 1777474629 | 12.22° C | 65% | 1017.8 hPa | 0 mm | - | 232 W/m² | - |
| 1777474326 | 12.22° C | 65% | 1017.7 hPa | 0 mm | - | 199 W/m² | - |
| 1777474023 | 12.78° C | 66% | 1017.6 hPa | 0 mm | - | 220 W/m² | - |
| 1777473721 | 12.22° C | 67% | 1017.7 hPa | 0 mm | - | 201 W/m² | - |
| 1777473417 | 12.22° C | 65% | 1017.5 hPa | 0 mm | - | 180 W/m² | - |
| 1777473113 | 11.67° C | 66% | 1017.5 hPa | 0 mm | - | 124 W/m² | - |
| 1777472809 | 11.67° C | 65% | 1017.4 hPa | 0 mm | - | 117 W/m² | - |
| 1777472506 | 11.67° C | 66% | 1017.6 hPa | 0 mm | - | 59 W/m² | - |
| 1777472203 | 11.11° C | 67% | 1017.4 hPa | 0 mm | - | 56 W/m² | - |
| 1777471898 | 11.11° C | 68% | 1017.6 hPa | 0 mm | - | 54 W/m² | - |
| 1777471596 | 11.67° C | 67% | 1017.4 hPa | 0 mm | - | 122 W/m² | - |
| 1777471292 | 11.67° C | 67% | 1017.4 hPa | 0 mm | - | 163 W/m² | - |
| 1777470988 | 11.67° C | 68% | 1017.5 hPa | 0 mm | - | 55 W/m² | - |
| 1777470686 | 11.11° C | 69% | 1017.4 hPa | 0 mm | - | 53 W/m² | - |
| 1777470381 | 11.11° C | 70% | 1017.3 hPa | 0 mm | - | 59 W/m² | - |
| 1777470079 | 11.11° C | 69% | 1017.6 hPa | 0 mm | - | 55 W/m² | - |
| 1777469775 | 11.11° C | 70% | 1017.4 hPa | 0 mm | - | 136 W/m² | - |
| 1777469471 | 11.11° C | 71% | 1017.2 hPa | 0 mm | - | 90 W/m² | - |
| 1777469171 | 11.11° C | 72% | 1017.2 hPa | 0 mm | - | 63 W/m² | - |
| 1777468871 | 11.11° C | 73% | 1017.3 hPa | 0 mm | - | 62 W/m² | - |
| 1777468568 | 11.11° C | 74% | 1017.2 hPa | 0 mm | - | 122 W/m² | - |
| 1777468265 | 10.56° C | 76% | 1017.5 hPa | 0 mm | - | 67 W/m² | - |
| 1777467961 | 10.56° C | 78% | 1017.5 hPa | 0 mm | - | 98 W/m² | - |
| 1777467657 | 11.11° C | 79% | 1017.2 hPa | 0 mm | - | 63 W/m² | - |
| 1777467352 | 10.56° C | 80% | 1017.5 hPa | 0 mm | - | 122 W/m² | - |
* Rain latest hour (hover to see other rain measurements)
** Current wind speed in m/s (hover to see current wind gust speed)